Hourly Data Report for October 05, 2017

All times are specified in Local Standard Time (LST). Add 1 hour to adjust for Daylight Saving Time where and when it is observed.

MELITA
MANITOBA

49°16'52.600" N
100°59'10.900" W
445.90 m
501A7AR
71447
WEI

Download Data

Hourly Data (October 2017)
Hourly Data Report for October 5, 2017
Temp Definition
°C
Dew Point Temp Definition
°C
Rel Hum Definition
%
Wind Dir Definition
10's deg

Wind Spd Definition
km/h
Visibility Definition
km
Stn Press Definition
kPa
Hmdx Definition


Wind Chill Definition


Weather Definition


TIME
00:00 1.1 -1.8 81 26 8   96.73     LegendNANA
01:00 0.8 -2.2 81 26 8   96.77     LegendNANA
02:00 0.4 -2.8 79 25 7   96.78     LegendNANA
03:00 -1.2 -3.3 85 28 2   96.78   -2 LegendNANA
04:00 -2.9 -4.5 89 32 8   96.79   -6 LegendNANA
05:00 -1.8 -3.2 90 33 4   96.81   -3 LegendNANA
06:00 -2.3 -3.8 89 27 3   96.82   -3 LegendNANA
07:00 -3.5 -4.7 91 29 2   96.83   -4 LegendNANA
08:00 0.2 -1.0 91 31 7   96.85     LegendNANA
09:00 4.5 1.1 79 35 8   96.89     LegendNANA
10:00 7.5 2.9 72 34 9   96.88     LegendNANA
11:00 10.2 3.0 61 28 4   96.88     LegendNANA
12:00 11.7 2.1 52 31 5   96.84     LegendNANA
13:00 13.4 2.4 47 25 4   96.76     LegendNANA
14:00 14.0 1.1 41 32 11   96.72     LegendNANA
15:00 14.3 0.5 39 29 7   96.67     LegendNANA
16:00 14.6 0.2 37 27 8   96.63     LegendNANA
17:00 14.3 1.2 41 28 5   96.58     LegendNANA
18:00 11.4 1.6 51 22 3   96.56     LegendNANA
19:00 8.5 2.5 66 20 5   96.55     LegendNANA
20:00 7.8 1.9 66 20 6   96.53     LegendNANA
21:00 4.7 1.3 79 20 5   96.52     LegendNANA
22:00 4.5 0.7 76 20 7   96.50     LegendNANA
23:00 2.3 0.1 86 19 7   96.48     LegendNANA

Notes on Data Quality.

Legend

  • E = Estimated
  • M = Missing
  • NA = Not Available
  • ‡ = Partner data that is not subject to review by the National Climate Archives
Date modified: